Location: Chandrammap?lem
(16.9200°N, 81.0051°E)
Time: 12:56:43
(UTC+00:00)

Cosmos 1743 - Pass Details

Date: 29 May 2024
Orbit: 474 x 488 km, 82.5° (Epoch: 18 June)

Event Time Altitude Azimuth Distance (km) Brightness Sun altitude
Rises 14:56:43 0° 355° (N) 2,519 6.8 -24.3°
Reaches altitude 10° 14:58:48 10° 355° (N) 1,642 5.7 -24.7°
Enters shadow 15:00:57 34° 353° (N) 795 3.9 -25.2°
